Meteo pe oră la Aberystwyth

Astăzi, 26 Iulie, Luni

Timp Temperatura Precipitaţii Vânt Presiune Umiditate
00:00 +14°C° 0 mm 1 m/s 749 mmHg 90%
01:00 +14°C° 0 mm 1 m/s 749 mmHg 90%
02:00 +13°C° 0 mm 1 m/s 749 mmHg 90%
03:00 +13°C° 0 mm 1 m/s 749 mmHg 91%
04:00 +14°C° 0 mm 1 m/s 749 mmHg 90%
05:00 +15°C° 0 mm 1 m/s 749 mmHg 89%
06:00 +15°C° 0 mm 1 m/s 749 mmHg 87%
07:00 +18°C° 0 mm 1 m/s 749 mmHg 82%
08:00 +20°C° 0 mm 1 m/s 749 mmHg 77%
09:00 +21°C° 0 mm 1 m/s 749 mmHg 72%
10:00 +22°C° 0 mm 1 m/s 749 mmHg 71%
11:00 +21°C° 0 mm 2 m/s 749 mmHg 69%
12:00 +23°C° 0 mm 2 m/s 749 mmHg 67%
13:00 +23°C° 0.1 mm 2 m/s 749 mmHg 67%
14:00 +23°C° 0.1 mm 2 m/s 749 mmHg 67%
15:00 +23°C° 0.1 mm 2 m/s 748 mmHg 66%
16:00 +21°C° 0.2 mm 2 m/s 748 mmHg 70%
17:00 +21°C° 0.2 mm 1 m/s 748 mmHg 74%
18:00 +18°C° 0.2 mm 0 m/s 748 mmHg 78%
19:00 +19°C° 0.2 mm 1 m/s 748 mmHg 82%
20:00 +18°C° 0.2 mm 1 m/s 748 mmHg 86%
21:00 +16°C° 0.2 mm 1 m/s 748 mmHg 91%
22:00 +15°C° 0.3 mm 1 m/s 748 mmHg 91%
23:00 +15°C° 0.3 mm 1 m/s 748 mmHg 91%

Mâine, 27 Iulie, Marţi

Timp Temperatura Precipitaţii Vânt Presiune Umiditate
00:00 +15°C° 0.3 mm 1 m/s 748 mmHg 91%
01:00 +15°C° 0.2 mm 1 m/s 748 mmHg 91%
02:00 +15°C° 0.2 mm 2 m/s 747 mmHg 92%
03:00 +15°C° 0.2 mm 2 m/s 747 mmHg 92%
04:00 +15°C° 0 mm 2 m/s 747 mmHg 92%
05:00 +15°C° 0 mm 2 m/s 747 mmHg 92%
06:00 +16°C° 0 mm 2 m/s 747 mmHg 92%
07:00 +16°C° 0.1 mm 2 m/s 747 mmHg 89%
08:00 +17°C° 0.1 mm 2 m/s 746 mmHg 86%
09:00 +18°C° 0.1 mm 2 m/s 746 mmHg 83%
10:00 +19°C° 0.3 mm 2 m/s 746 mmHg 82%
11:00 +19°C° 0.3 mm 2 m/s 746 mmHg 80%
12:00 +20°C° 0.3 mm 2 m/s 746 mmHg 78%
13:00 +20°C° 0.6 mm 2 m/s 746 mmHg 79%
14:00 +20°C° 0.6 mm 2 m/s 746 mmHg 80%
15:00 +20°C° 0.6 mm 3 m/s 746 mmHg 81%
16:00 +19°C° 0.3 mm 3 m/s 746 mmHg 83%
17:00 +18°C° 0.3 mm 3 m/s 746 mmHg 86%
18:00 +17°C° 0.3 mm 4 m/s 746 mmHg 88%
19:00 +15°C° 0.1 mm 4 m/s 746 mmHg 91%
20:00 +15°C° 0.1 mm 4 m/s 746 mmHg 94%
21:00 +14°C° 0.1 mm 4 m/s 746 mmHg 96%
22:00 +14°C° 0.3 mm 4 m/s 746 mmHg 97%
23:00 +14°C° 0.3 mm 4 m/s 746 mmHg 97%

Poimâine, 28 Iulie, Miercuri

Timp Temperatura Precipitaţii Vânt Presiune Umiditate
00:00 +14°C° 0.3 mm 4 m/s 746 mmHg 97%
01:00 +13°C° 0.2 mm 4 m/s 746 mmHg 97%
02:00 +13°C° 0.2 mm 4 m/s 746 mmHg 96%
03:00 +13°C° 0.2 mm 4 m/s 746 mmHg 96%
04:00 +13°C° 0.2 mm 4 m/s 746 mmHg 96%
05:00 +13°C° 0.2 mm 4 m/s 746 mmHg 95%
06:00 +13°C° 0.2 mm 4 m/s 746 mmHg 95%
07:00 +14°C° 0.4 mm 5 m/s 746 mmHg 90%
08:00 +15°C° 0.4 mm 6 m/s 746 mmHg 85%
09:00 +15°C° 0.4 mm 6 m/s 746 mmHg 80%
10:00 +16°C° 0.3 mm 6 m/s 746 mmHg 77%
11:00 +16°C° 0.3 mm 6 m/s 746 mmHg 74%
12:00 +17°C° 0.3 mm 7 m/s 745 mmHg 72%
13:00 +16°C° 0.4 mm 7 m/s 746 mmHg 72%
14:00 +16°C° 0.4 mm 8 m/s 746 mmHg 72%
15:00 +16°C° 0.4 mm 8 m/s 746 mmHg 73%
16:00 +15°C° 0.3 mm 8 m/s 746 mmHg 75%
17:00 +15°C° 0.3 mm 8 m/s 746 mmHg 78%
18:00 +13°C° 0.3 mm 8 m/s 746 mmHg 81%
19:00 +12°C° 0.2 mm 7 m/s 746 mmHg 83%
20:00 +12°C° 0.2 mm 7 m/s 746 mmHg 84%
21:00 +11°C° 0.2 mm 6 m/s 746 mmHg 86%
22:00 +11°C° 0.1 mm 7 m/s 747 mmHg 87%
23:00 +11°C° 0.1 mm 7 m/s 747 mmHg 88%

29 Iulie, Joi

Timp Temperatura Precipitaţii Vânt Presiune Umiditate
00:00 +11°C° 0.1 mm 7 m/s 747 mmHg 89%
01:00 +10°C° 0 mm 6 m/s 747 mmHg 90%
02:00 +10°C° 0 mm 6 m/s 747 mmHg 90%
03:00 +9°C° 0 mm 5 m/s 747 mmHg 91%
04:00 +10°C° 0.1 mm 5 m/s 747 mmHg 91%
05:00 +10°C° 0.1 mm 5 m/s 747 mmHg 90%
06:00 +10°C° 0.1 mm 5 m/s 747 mmHg 90%
07:00 +13°C° 0 mm 5 m/s 747 mmHg 84%
08:00 +14°C° 0 mm 5 m/s 747 mmHg 79%
09:00 +15°C° 0 mm 5 m/s 747 mmHg 73%
10:00 +15°C° 0 mm 5 m/s 747 mmHg 70%
11:00 +16°C° 0 mm 5 m/s 747 mmHg 67%
12:00 +17°C° 0 mm 5 m/s 747 mmHg 63%
13:00 +16°C° 0 mm 5 m/s 747 mmHg 64%
14:00 +16°C° 0 mm 5 m/s 746 mmHg 65%
15:00 +16°C° 0 mm 6 m/s 746 mmHg 65%
16:00 +16°C° 0 mm 6 m/s 746 mmHg 69%
17:00 +15°C° 0 mm 6 m/s 746 mmHg 74%
18:00 +15°C° 0 mm 6 m/s 746 mmHg 78%
19:00 +14°C° 0.2 mm 6 m/s 746 mmHg 83%
20:00 +13°C° 0.2 mm 5 m/s 746 mmHg 89%
21:00 +12°C° 0.2 mm 5 m/s 746 mmHg 95%
22:00 +13°C° 0.3 mm 5 m/s 746 mmHg 95%
23:00 +13°C° 0.3 mm 6 m/s 746 mmHg 95%

30 Iulie, Vineri

Timp Temperatura Precipitaţii Vânt Presiune Umiditate
00:00 +13°C° 0.3 mm 6 m/s 746 mmHg 95%
01:00 +13°C° 0.2 mm 6 m/s 746 mmHg 95%
02:00 +14°C° 0.2 mm 6 m/s 747 mmHg 95%
03:00 +14°C° 0.2 mm 7 m/s 747 mmHg 95%
04:00 +14°C° 0.1 mm 6 m/s 747 mmHg 94%
05:00 +14°C° 0.1 mm 6 m/s 747 mmHg 93%
06:00 +14°C° 0.1 mm 6 m/s 748 mmHg 92%
07:00 +14°C° 0.1 mm 6 m/s 748 mmHg 90%
08:00 +15°C° 0.1 mm 6 m/s 748 mmHg 88%
09:00 +16°C° 0.1 mm 6 m/s 748 mmHg 86%
10:00 +16°C° 0.2 mm 6 m/s 748 mmHg 86%
11:00 +16°C° 0.2 mm 6 m/s 749 mmHg 86%
12:00 +16°C° 0.2 mm 6 m/s 749 mmHg 86%
13:00 +16°C° 0.2 mm 6 m/s 749 mmHg 84%
14:00 +16°C° 0.2 mm 6 m/s 749 mmHg 82%
15:00 +17°C° 0.2 mm 6 m/s 749 mmHg 80%
16:00 +16°C° 0.2 mm 6 m/s 749 mmHg 83%
17:00 +16°C° 0.2 mm 6 m/s 749 mmHg 85%
18:00 +16°C° 0.2 mm 6 m/s 749 mmHg 87%
19:00 +15°C° 0.2 mm 6 m/s 749 mmHg 88%
20:00 +15°C° 0.2 mm 6 m/s 749 mmHg 89%
21:00 +15°C° 0.2 mm 5 m/s 749 mmHg 90%
22:00 +14°C° 0.2 mm 5 m/s 749 mmHg 92%
23:00 +14°C° 0.2 mm 5 m/s 749 mmHg 93%

31 Iulie, Sâmbătă

Timp Temperatura Precipitaţii Vânt Presiune Umiditate
00:00 +14°C° 0.2 mm 5 m/s 749 mmHg 95%
01:00 +14°C° 0.1 mm 5 m/s 749 mmHg 95%
02:00 +14°C° 0.1 mm 5 m/s 749 mmHg 95%
03:00 +14°C° 0.1 mm 5 m/s 749 mmHg 96%
04:00 +14°C° 0.1 mm 5 m/s 749 mmHg 96%
05:00 +14°C° 0.1 mm 5 m/s 749 mmHg 96%
06:00 +14°C° 0.1 mm 5 m/s 749 mmHg 96%
07:00 +14°C° 0.1 mm 5 m/s 749 mmHg 95%
08:00 +14°C° 0.1 mm 5 m/s 749 mmHg 95%
09:00 +14°C° 0.1 mm 5 m/s 749 mmHg 94%
10:00 +15°C° 0.1 mm 5 m/s 749 mmHg 89%
11:00 +16°C° 0.1 mm 5 m/s 749 mmHg 83%
12:00 +16°C° 0.1 mm 5 m/s 749 mmHg 78%
13:00 +18°C° 0 mm 4 m/s 749 mmHg 77%
14:00 +18°C° 0 mm 4 m/s 749 mmHg 76%
15:00 +18°C° 0 mm 4 m/s 749 mmHg 75%
16:00 +17°C° 0 mm 3 m/s 749 mmHg 77%
17:00 +17°C° 0 mm 3 m/s 749 mmHg 79%
18:00 +17°C° 0 mm 2 m/s 749 mmHg 81%
19:00 +16°C° 0.1 mm 2 m/s 749 mmHg 85%
20:00 +15°C° 0.1 mm 2 m/s 749 mmHg 89%
21:00 +14°C° 0.1 mm 1 m/s 750 mmHg 93%
22:00 +13°C° 0 mm 1 m/s 750 mmHg 94%
23:00 +13°C° 0 mm 1 m/s 750 mmHg 94%
Arată mai mult

Formular de consimțământ

Meteoprog și furnizorii noștri de servicii pot stoca și accesa date personale, precum cookies, identificatori de dispozitiv sau alte tehnologii similare pe dispozitivul dumneavoastră și procesa astfel de date pentru a personaliza conținutul și reclamele, dar și pentru a oferi caracteristici de social media și pentru a analiza traficul.

  • Stocarea și/sau accesarea informațiilor pe dispozitivul dumneavoastră

    Cookies, identificatori de dispozitiv sau alte informații pot fi stocate sau accesate pe dispozitiv în scopurile indicate mai sus.

  • Reclame și conținut personalizat, evaluarea reclamelor și a conținutului, informații despre audiențe și dezvoltarea produselor

    Reclamele și conținutul pot fi personalizate pe baza unui profil. Pot fi adăugate date suplimentare pentru a personaliza mai bine reclamele și conținutul. Performanța reclamelor și conținutului poate fi măsurată. Pot fi obținute informații despre utilizatorii care au văzut reclamele și conținutul. Aceste date pot fi utilizate pentru a dezvolta sau îmbunătăți experiența utilizatorilor, sistemele și software-ul.

Dând clic pe ‘Sunt de acord’, permiteți utilizarea cookie-urilor menționate, a identificatorilor de dispozitiv, balizelor web sau altor tehnologii similare. Setările pot fi modificate din browser-ul dispozitivului dumneavoastră.

În anumite scopuri, interesele legitime pot prima asupra consimțământului. Puteți citi mai multe informații în acest sens în Politica privind Confidențialitatea Datelor și Cookie.